• In Kazakhstan
  • List of Countries
  • For 7 days
  • Water Temperature
  • Satellite Maps
  • Weather Map
  • News
  • Weather Widgets
  • user-avatar
    Login

    Hourly Weather Bangarapet

    Today, 24 September, Sunday

    Time Temperature Precipitation Wind Pressure Humidity
    00:00 +23°C° 0 mm 0 mps 689 mmHg 70%
    01:00 +23°C° 0 mm 0 mps 689 mmHg 72%
    02:00 +23°C° 0 mm 0 mps 688 mmHg 73%
    03:00 +23°C° 0 mm 0 mps 688 mmHg 74%
    04:00 +22°C° 0 mm 0 mps 688 mmHg 75%
    05:00 +24°C° 0 mm 1 mps 688 mmHg 80%
    06:00 +25°C° 0.2 mm 1 mps 689 mmHg 76%
    07:00 +26°C° 0.2 mm 2 mps 689 mmHg 72%
    08:00 +27°C° 0.2 mm 2 mps 690 mmHg 68%
    09:00 +28°C° 0.9 mm 2 mps 690 mmHg 65%
    10:00 +29°C° 0.9 mm 2 mps 690 mmHg 61%
    11:00 +30°C° 0 mm 2 mps 690 mmHg 58%
    12:00 +30°C° 1.7 mm 2 mps 689 mmHg 58%
    13:00 +30°C° 1.7 mm 2 mps 688 mmHg 58%
    14:00 +30°C° 1.7 mm 2 mps 688 mmHg 58%
    15:00 +29°C° 2.5 mm 2 mps 688 mmHg 63%
    16:00 +28°C° 2.5 mm 1 mps 688 mmHg 68%
    17:00 +28°C° 2.5 mm 1 mps 687 mmHg 73%
    18:00 +27°C° 1.8 mm 1 mps 688 mmHg 75%
    19:00 +26°C° 1.8 mm 1 mps 688 mmHg 78%
    20:00 +26°C° 1.8 mm 1 mps 688 mmHg 80%
    21:00 +25°C° 0.9 mm 1 mps 688 mmHg 80%
    22:00 +25°C° 0.9 mm 1 mps 688 mmHg 80%
    23:00 +25°C° 0.9 mm 2 mps 689 mmHg 81%

    Tomorrow, 25 September, Monday

    Time Temperature Precipitation Wind Pressure Humidity
    00:00 +24°C° 0.6 mm 2 mps 688 mmHg 82%
    01:00 +24°C° 0.6 mm 2 mps 688 mmHg 83%
    02:00 +24°C° 0.6 mm 3 mps 687 mmHg 84%
    03:00 +24°C° 0.7 mm 3 mps 687 mmHg 84%
    04:00 +24°C° 0.7 mm 3 mps 687 mmHg 84%
    05:00 +22°C° 0.7 mm 3 mps 687 mmHg 84%
    06:00 +23°C° 0.4 mm 4 mps 688 mmHg 81%
    07:00 +25°C° 0.4 mm 4 mps 689 mmHg 79%
    08:00 +25°C° 0.4 mm 4 mps 689 mmHg 77%
    09:00 +26°C° 1.3 mm 4 mps 689 mmHg 73%
    10:00 +27°C° 1.3 mm 3 mps 689 mmHg 70%
    11:00 +28°C° 1.3 mm 3 mps 689 mmHg 67%
    12:00 +28°C° 1.5 mm 3 mps 688 mmHg 67%
    13:00 +28°C° 1.5 mm 3 mps 687 mmHg 68%
    14:00 +28°C° 1.5 mm 2 mps 686 mmHg 68%
    15:00 +27°C° 0.6 mm 2 mps 686 mmHg 71%
    16:00 +27°C° 0.6 mm 2 mps 686 mmHg 75%
    17:00 +26°C° 0.6 mm 2 mps 686 mmHg 78%
    18:00 +25°C° 0.3 mm 2 mps 687 mmHg 79%
    19:00 +25°C° 0.3 mm 2 mps 687 mmHg 81%
    20:00 +24°C° 0.3 mm 3 mps 688 mmHg 82%
    21:00 +24°C° 0.2 mm 3 mps 688 mmHg 83%
    22:00 +24°C° 0.2 mm 3 mps 688 mmHg 83%
    23:00 +22°C° 0.2 mm 3 mps 688 mmHg 84%

    Day after tomorrow, 26 September, Tuesday

    Time Temperature Precipitation Wind Pressure Humidity
    00:00 +22°C° 0.2 mm 3 mps 687 mmHg 85%
    01:00 +22°C° 0.2 mm 3 mps 687 mmHg 87%
    02:00 +22°C° 0.2 mm 3 mps 686 mmHg 88%
    03:00 +22°C° 0.1 mm 3 mps 687 mmHg 88%
    04:00 +22°C° 0.1 mm 3 mps 687 mmHg 89%
    05:00 +21°C° 0.1 mm 3 mps 687 mmHg 89%
    06:00 +22°C° 0 mm 3 mps 687 mmHg 85%
    07:00 +23°C° 0 mm 4 mps 688 mmHg 82%
    08:00 +25°C° 0 mm 4 mps 689 mmHg 78%
    09:00 +26°C° 1.1 mm 3 mps 689 mmHg 74%
    10:00 +27°C° 1.1 mm 3 mps 688 mmHg 70%
    11:00 +28°C° 1.1 mm 3 mps 688 mmHg 65%
    12:00 +29°C° 1.1 mm 2 mps 688 mmHg 65%
    13:00 +29°C° 1.1 mm 2 mps 687 mmHg 65%
    14:00 +29°C° 1.1 mm 2 mps 686 mmHg 64%
    15:00 +28°C° 1 mm 2 mps 686 mmHg 69%
    16:00 +27°C° 1 mm 2 mps 686 mmHg 73%
    17:00 +26°C° 1 mm 1 mps 686 mmHg 78%
    18:00 +26°C° 1.1 mm 2 mps 687 mmHg 79%
    19:00 +25°C° 1.1 mm 2 mps 687 mmHg 80%
    20:00 +25°C° 1.1 mm 2 mps 688 mmHg 81%
    21:00 +25°C° 0.8 mm 2 mps 688 mmHg 82%
    22:00 +24°C° 0.8 mm 2 mps 688 mmHg 83%
    23:00 +24°C° 0.8 mm 3 mps 688 mmHg 83%

    27 September, Wednesday

    Time Temperature Precipitation Wind Pressure Humidity
    00:00 +24°C° 1.6 mm 3 mps 687 mmHg 84%
    01:00 +24°C° 1.6 mm 3 mps 687 mmHg 84%
    02:00 +24°C° 1.6 mm 3 mps 686 mmHg 85%
    03:00 +24°C° 0.7 mm 3 mps 686 mmHg 86%
    04:00 +22°C° 0.7 mm 3 mps 686 mmHg 87%
    05:00 +22°C° 0.7 mm 3 mps 686 mmHg 87%
    06:00 +24°C° 0.2 mm 3 mps 687 mmHg 86%
    07:00 +24°C° 0.2 mm 3 mps 688 mmHg 85%
    08:00 +23°C° 0.2 mm 4 mps 688 mmHg 84%
    09:00 +26°C° 0.5 mm 4 mps 688 mmHg 80%
    10:00 +27°C° 0.5 mm 3 mps 688 mmHg 76%
    11:00 +28°C° 0.5 mm 3 mps 688 mmHg 71%
    12:00 +28°C° 2 mm 3 mps 688 mmHg 71%
    13:00 +28°C° 2 mm 3 mps 687 mmHg 71%
    14:00 +28°C° 2 mm 3 mps 686 mmHg 71%
    15:00 +27°C° 1.5 mm 2 mps 686 mmHg 75%
    16:00 +26°C° 1.5 mm 2 mps 686 mmHg 79%
    17:00 +25°C° 1.5 mm 2 mps 686 mmHg 83%
    18:00 +25°C° 0.9 mm 2 mps 687 mmHg 85%
    19:00 +24°C° 0.9 mm 2 mps 687 mmHg 86%
    20:00 +24°C° 0.9 mm 2 mps 687 mmHg 88%
    21:00 +24°C° 0.3 mm 2 mps 687 mmHg 88%
    22:00 +24°C° 0.3 mm 2 mps 687 mmHg 89%
    23:00 +22°C° 0.3 mm 3 mps 687 mmHg 89%

    28 September, Thursday

    Time Temperature Precipitation Wind Pressure Humidity
    00:00 +22°C° 0.4 mm 3 mps 687 mmHg 89%
    01:00 +22°C° 0.4 mm 3 mps 686 mmHg 90%
    02:00 +22°C° 0.4 mm 3 mps 686 mmHg 90%
    03:00 +22°C° 0.3 mm 3 mps 686 mmHg 91%
    04:00 +22°C° 0.3 mm 3 mps 686 mmHg 91%
    05:00 +22°C° 0.3 mm 3 mps 686 mmHg 91%
    06:00 +22°C° 0.5 mm 4 mps 687 mmHg 88%
    07:00 +23°C° 0.5 mm 4 mps 687 mmHg 86%
    08:00 +25°C° 0.5 mm 4 mps 688 mmHg 83%
    09:00 +25°C° 1 mm 4 mps 688 mmHg 80%
    10:00 +26°C° 1 mm 4 mps 688 mmHg 77%
    11:00 +27°C° 1 mm 4 mps 688 mmHg 75%
    12:00 +27°C° 1.5 mm 3 mps 687 mmHg 74%
    13:00 +27°C° 1.5 mm 3 mps 686 mmHg 74%
    14:00 +27°C° 1.5 mm 3 mps 686 mmHg 74%
    15:00 +26°C° 1.4 mm 3 mps 686 mmHg 77%
    16:00 +26°C° 1.4 mm 3 mps 686 mmHg 81%
    17:00 +25°C° 1.4 mm 2 mps 686 mmHg 84%
    18:00 +24°C° 0.3 mm 3 mps 687 mmHg 86%
    19:00 +24°C° 0.3 mm 3 mps 687 mmHg 88%
    20:00 +22°C° 0.3 mm 3 mps 688 mmHg 89%
    21:00 +22°C° 0.4 mm 3 mps 688 mmHg 90%
    22:00 +22°C° 0.4 mm 3 mps 688 mmHg 90%
    23:00 +22°C° 0.4 mm 4 mps 688 mmHg 91%

    29 September, Friday

    Time Temperature Precipitation Wind Pressure Humidity
    00:00 +22°C° 0.7 mm 4 mps 687 mmHg 91%
    01:00 +22°C° 0.7 mm 4 mps 686 mmHg 91%
    02:00 +21°C° 0.7 mm 4 mps 686 mmHg 92%
    03:00 +21°C° 0.5 mm 4 mps 686 mmHg 92%
    04:00 +21°C° 0.5 mm 4 mps 686 mmHg 92%
    05:00 +21°C° 0.5 mm 4 mps 686 mmHg 92%
    06:00 +22°C° 0.1 mm 4 mps 687 mmHg 90%
    07:00 +22°C° 0.1 mm 4 mps 687 mmHg 89%
    08:00 +22°C° 0.1 mm 4 mps 688 mmHg 87%
    09:00 +25°C° 0.4 mm 4 mps 688 mmHg 82%
    10:00 +26°C° 0.4 mm 4 mps 688 mmHg 77%
    11:00 +28°C° 0.4 mm 4 mps 687 mmHg 72%
    12:00 +28°C° 0.8 mm 4 mps 687 mmHg 70%
    13:00 +28°C° 0.8 mm 4 mps 686 mmHg 68%
    14:00 +29°C° 0.8 mm 3 mps 685 mmHg 67%
    15:00 +28°C° 1.4 mm 3 mps 686 mmHg 71%
    16:00 +27°C° 1.4 mm 2 mps 686 mmHg 76%
    17:00 +26°C° 1.4 mm 2 mps 686 mmHg 80%
    18:00 +26°C° 1.3 mm 2 mps 686 mmHg 82%
    19:00 +25°C° 1.3 mm 2 mps 687 mmHg 84%
    20:00 +24°C° 1.3 mm 2 mps 687 mmHg 85%
    21:00 +24°C° 0.2 mm 2 mps 687 mmHg 86%
    22:00 +24°C° 0.2 mm 3 mps 687 mmHg 87%
    23:00 +22°C° 0.2 mm 3 mps 687 mmHg 87%
    Show more